9W2KHE-13 Weather Reports


time (UTC)temp
C
wind
direction
speed
KPH
gust
KPH
rain 1hr
cm
rain 24hr
cm
rain mn
cm
humidity
%
barometer
mb
20260502222046 28 135 0.0 0.0 0.00 0.00 0.00 70 1009.9
20260502221545 28 135 0.0 0.0 0.00 0.00 0.00 70 1009.9
20260502221044 28 135 0.0 0.0 0.00 0.00 0.00 70 1009.9
20260502220544 28 135 0.0 0.0 0.00 0.00 0.00 70 1009.9
20260502220041 28 135 0.0 0.0 0.00 0.00 0.00 70 1010.0
20260502215541 29 135 0.0 0.0 0.00 0.00 0.00 70 1010.0
20260502214539 29 135 0.0 0.0 0.00 0.00 0.00 70 1010.0
20260502214039 29 135 0.0 0.0 0.00 0.00 0.00 70 1010.1
20260502212534 29 135 0.0 0.0 0.00 0.00 0.00 70 1010.0
20260502211533 29 135 0.0 0.0 0.00 0.00 0.00 70 1010.1
20260502210530 29 135 0.0 0.0 0.00 0.00 0.00 70 1010.2
20260502210029 29 135 0.0 0.0 0.00 0.00 0.00 70 1010.2
20260502205528 29 135 0.0 0.0 0.00 0.00 0.00 70 1010.2
20260502204526 29 135 0.0 0.0 0.00 0.00 0.00 70 1010.1
20260502202523 29 135 0.0 0.0 0.00 0.00 0.00 70 1010.1
20260502202020 29 135 0.0 0.0 0.00 0.00 0.00 69 1010.0
20260502201519 29 135 0.0 0.0 0.00 0.00 0.00 69 1010.0
20260502200519 29 135 0.0 0.0 0.00 0.00 0.00 69 1010.0
20260502195515 29 135 0.0 0.0 0.00 0.00 0.00 69 1010.1
20260502194520 29 136 0.0 0.0 0.00 0.00 0.00 69 1010.1
20260502194013 29 135 0.0 0.0 0.00 0.00 0.00 69 1010.1
20260502193512 29 135 0.0 0.0 0.00 0.00 0.00 69 1010.1
20260502193010 29 135 0.0 0.0 0.00 0.00 0.00 69 1010.2
20260502192511 29 135 0.0 0.0 0.00 0.00 0.00 69 1010.1
20260502192008 29 135 0.0 0.0 0.00 0.00 0.00 69 1010.2
20260502191507 29 157 0.0 0.0 0.00 0.00 0.00 69 1010.2
20260502184501 30 157 0.0 0.0 0.00 0.00 0.00 68 1010.2
20260502184000 30 157 0.0 0.0 0.00 0.00 0.00 68 1010.2
20260502183501 30 157 0.0 0.0 0.00 0.00 0.00 67 1010.4
20260502181455 30 135 0.0 0.0 0.00 0.00 0.00 67 1010.5
20260502163434 30 135 0.0 0.0 0.00 0.00 0.00 66 1011.8
20260502162934 30 135 0.0 0.0 0.00 0.00 0.00 66 1011.9
20260502161931 30 135 0.0 0.0 0.00 0.00 0.00 66 1011.9
20260502161430 30 135 0.0 0.0 0.00 0.00 0.00 66 1011.9
20260502160929 30 135 0.0 0.0 0.00 0.00 0.00 66 1011.9
20260502151918 31 135 0.0 0.0 0.00 0.00 0.00 64 1011.9
20260502151419 31 135 0.0 0.0 0.00 0.00 0.00 64 1011.9
20260502150415 31 135 0.0 0.0 0.00 0.00 0.00 64 1011.8
20260502130350 31 135 0.0 0.0 0.00 0.00 0.00 62 1010.7
20260502123344 32 135 0.0 0.0 0.00 0.00 0.00 61 1010.0
20260502122843 32 135 0.0 0.0 0.00 0.00 0.00 61 1009.9
20260502122342 32 135 0.0 0.0 0.00 0.00 0.00 61 1009.8
20260502121841 32 135 0.0 0.0 0.00 0.00 0.00 61 1009.7
20260502121339 32 135 0.0 0.0 0.00 0.00 0.00 60 1009.8
20260502120839 32 153 0.0 0.0 0.00 0.00 0.00 60 1009.6
20260502120338 32 135 0.0 0.0 0.00 0.00 0.00 60 1009.5
20260502114834 32 135 0.0 0.0 0.00 0.00 0.00 60 1009.1
20260502114334 32 135 0.0 0.0 0.00 0.00 0.00 60 1009.1
20260502113832 32 135 0.0 0.0 0.00 0.00 0.00 59 1008.9
20260502113331 32 135 0.0 0.0 0.00 0.00 0.00 59 1008.8
20260502112838 32 135 0.0 0.0 0.00 0.00 0.00 59 1008.8
20260502112329 32 135 0.0 0.0 0.00 0.00 0.00 59 1008.7
20260502111828 32 135 0.0 0.0 0.00 0.00 0.00 59 1008.6
20260502111327 32 157 0.0 0.0 0.00 0.00 0.00 59 1008.7
20260502110826 32 157 0.0 0.0 0.00 0.00 0.00 59 1008.7
20260502110329 32 157 0.0 0.0 0.00 0.00 0.00 59 1008.5
20260502105824 32 157 0.0 0.0 0.00 0.00 0.00 59 1008.5
20260502105323 32 157 0.0 0.0 0.00 0.00 0.00 59 1008.5
20260502104822 32 135 0.0 0.0 0.00 0.00 0.00 59 1008.3
20260502104321 33 135 0.0 0.0 0.00 0.00 0.00 59 1008.3
20260502103821 33 157 0.0 0.0 0.00 0.00 0.00 59 1008.3
20260502103318 33 135 0.0 0.0 0.00 0.00 0.00 59 1008.2
20260502102817 33 135 0.0 0.0 0.00 0.00 0.00 59 1008.2
20260502101815 33 135 0.0 0.0 0.00 0.00 0.00 59 1008.1
20260502101316 33 135 0.0 0.0 0.00 0.00 0.00 59 1008.3
20260502100813 33 157 0.0 0.0 0.00 0.00 0.00 59 1008.2
20260502091302 33 153 0.0 0.0 0.00 0.00 0.00 59 1008.1
20260502090801 33 142 0.0 0.0 0.00 0.00 0.00 59 1008.1
20260502090300 33 139 0.0 0.0 0.00 0.00 0.00 59 1008.1
20260502071236 32 137 0.0 0.0 0.00 0.00 0.00 62 1008.9
20260502070735 32 156 0.0 0.0 0.00 0.00 0.00 63 1009.0
20260502070235 32 135 0.0 0.0 0.00 0.00 0.00 63 1009.1
20260502065733 32 143 0.0 0.0 0.00 0.00 0.00 63 1009.4
20260502064731 31 135 0.0 0.0 0.00 0.00 0.00 63 1009.6
20260502064230 31 135 0.0 0.0 0.00 0.00 0.00 63 1009.7
20260502063729 31 135 0.0 0.0 0.00 0.00 0.00 63 1009.7
20260502063228 31 135 0.0 0.0 0.00 0.00 0.00 63 1009.9
20260502062226 31 135 0.0 0.0 0.00 0.00 0.00 64 1010.0
20260502061224 31 135 0.0 0.0 0.00 0.00 0.00 64 1010.2
20260502060723 31 135 0.0 0.0 0.00 0.00 0.00 64 1010.5
20260502060223 31 136 0.0 0.0 0.00 0.00 0.00 65 1010.7
20260502055220 31 135 0.0 0.0 0.00 0.00 0.00 65 1010.9
20260502053719 31 135 0.0 0.0 0.00 0.00 0.00 66 1011.1
20260502053215 31 135 0.0 0.0 0.00 0.00 0.00 66 1011.0
20260502052715 31 135 0.0 0.0 0.00 0.00 0.00 65 1011.1
20260502051712 31 135 0.0 0.0 0.00 0.00 0.00 65 1011.2
20260502051213 31 135 0.0 0.0 0.00 0.00 0.00 65 1011.3
20260502050710 31 153 0.0 0.0 0.00 0.00 0.00 65 1011.5
20260502050210 31 135 0.0 0.0 0.00 0.00 0.00 64 1011.7
20260502045708 31 135 0.0 0.0 0.00 0.00 0.00 64 1011.7
20260502045207 31 151 0.0 0.0 0.00 0.00 0.00 64 1011.8
20260502043704 32 142 0.0 0.0 0.00 0.00 0.00 63 1011.9
20260502042702 32 135 0.0 0.0 0.00 0.00 0.00 64 1012.1
20260502042202 32 149 0.0 0.0 0.00 0.00 0.00 64 1012.2
20260502041700 32 135 0.0 0.0 0.00 0.00 0.00 64 1012.2
20260502041159 31 135 0.0 0.0 0.00 0.00 0.00 65 1012.3
20260502040658 31 135 0.0 0.0 0.00 0.00 0.00 65 1012.4
20260502040157 31 135 0.0 0.0 0.00 0.00 0.00 66 1012.5
20260502034654 31 135 0.0 0.0 0.00 0.00 0.00 67 1012.3
20260502034152 31 135 0.0 0.0 0.00 0.00 0.00 68 1012.3
20260502033152 31 135 0.0 0.0 0.00 0.00 0.00 68 1012.7
20260502032649 31 135 0.0 0.0 0.00 0.00 0.00 69 1012.7
20260502032148 30 135 0.0 0.0 0.00 0.00 0.00 69 1012.7
20260502031647 30 135 0.0 0.0 0.00 0.00 0.00 69 1012.8
20260502031146 30 135 0.0 0.0 0.00 0.00 0.00 70 1012.8
20260502030646 30 135 0.0 0.0 0.00 0.00 0.00 70 1012.9
20260502025643 30 135 0.0 0.0 0.00 0.00 0.00 70 1012.8
20260502025142 30 135 0.0 0.0 0.00 0.00 0.00 71 1012.8
20260502024641 30 135 0.0 0.0 0.00 0.00 0.00 71 1012.9
20260502023639 30 135 0.0 0.0 0.00 0.00 0.00 72 1012.9
20260502023138 29 135 0.0 0.0 0.00 0.00 0.00 72 1012.7
20260502022136 29 135 0.0 0.0 0.00 0.00 0.00 72 1012.7
20260502021636 29 135 0.0 0.0 0.00 0.00 0.00 73 1012.7
20260502021134 28 135 0.0 0.0 0.00 0.00 0.00 73 1012.7
20260502020131 28 135 0.0 0.0 0.00 0.00 0.00 73 1012.6
20260502014628 28 135 0.0 0.0 0.00 0.00 0.00 73 1012.6
20260502014127 28 135 0.0 0.0 0.00 0.00 0.00 73 1012.6
20260502013125 28 135 0.0 0.0 0.00 0.00 0.00 73 1012.5
20260502012624 28 135 0.0 0.0 0.00 0.00 0.00 73 1012.5
20260502012123 28 135 0.0 0.0 0.00 0.00 0.00 73 1012.5
20260502011622 28 135 0.0 0.0 0.00 0.00 0.00 73 1012.6
20260502005618 27 135 0.0 0.0 0.00 0.00 0.00 73 1012.5
20260502005117 27 135 0.0 0.0 0.00 0.00 0.00 73 1012.3
20260502004617 27 135 0.0 0.0 0.00 0.00 0.00 73 1012.2
20260502004115 27 135 0.0 0.0 0.00 0.00 0.00 73 1012.0
20260502002611 27 135 0.0 0.0 0.00 0.00 0.00 73 1011.9
20260502001110 27 135 0.0 0.0 0.00 0.00 0.00 73 1011.7
20260502000106 27 135 0.0 0.0 0.00 0.00 0.00 73 1011.7
20260501235605 27 135 0.0 0.0 0.00 0.00 0.00 73 1011.5
20260501235104 27 135 0.0 0.0 0.00 0.00 0.00 73 1011.4
20260501233601 27 135 0.0 0.0 0.00 0.00 0.00 72 1011.3
20260501233100 27 135 0.0 0.0 0.00 0.00 0.00 72 1011.1
20260501232559 27 135 0.0 0.0 0.00 0.00 0.00 72 1011.0
20260501232059 27 135 0.0 0.0 0.00 0.00 0.00 72 1011.0
20260501231056 27 135 0.0 0.0 0.00 0.00 0.00 72 1010.9
20260501230054 27 135 0.0 0.0 0.00 0.00 0.00 72 1010.8
20260501225051 27 135 0.0 0.0 0.00 0.00 0.00 72 1010.6
20260501224551 27 135 0.0 0.0 0.00 0.00 0.00 72 1010.5
20260501224049 27 135 0.0 0.0 0.00 0.00 0.00 72 1010.5
20260501223049 27 135 0.0 0.0 0.00 0.00 0.00 72 1010.4
20260501222546 27 135 0.0 0.0 0.00 0.00 0.00 72 1010.3